Погода в Черноморском

Россия / Республика Крым     45°30′33″N   32°42′12″E
В апреле 2022 года жителям России запретили посещать сайт meteo.paraplan.net по решению Генеральной прокуратуры. Аудитория сайта уменьшилась в 10 раз. Владельцы сайта не видят смысла в поддержке погодного сервера в таких условиях. Сайт будет закрыт в октябре.
темп.,
°C
ветер,
м/с
пор.,
м/с
влажн.,
%
обл.,
%
осадки,
мм/ч
давл.,
гПа
погр.,
м
25 сентября, вс
вс2500:00+16зсз684963 0.1 10201304
03:00+15зсз67515 0.2 10201169
06:00+15зсз67537 0.0 1021847
09:00+17зюз455087 0.0 10211418
12:00+18юз676012 0.1 10211342
15:00+19юз895860 0.6 10201458
18:00+18ююз785970 0.0 10191232
21:00+17ююз68637 0.0 1019700
26 сентября, пн
пн2600:00+17ююз79635 0.0 1018653
03:00+17ююз68656 0.0 1017573
06:00+17ю6869100 0.0 1017562
09:00+19ю676563 0.0 1016965
12:00+20ю786523 0.0 10161044
15:00+21ю786771 0.0 1015782
18:00+20ю6877100 0.0 1014605
21:00+19ю698794 0.0 1013494
27 сентября, вт
вт2700:00+19ю81188100 0.0 1012511
03:00+19ю81079100 0.0 1010540
06:00+19ююв6978100 0.0 1008430
09:00+20ююв81173100 0.0 1007565
12:00+21ю91269100 0.0 1006532
15:00+21ю111374100 0.0 1005512
18:00+20ю101381100 0.0 1004562
21:00+20ююз81174100 0.0 1003441
28 сентября, ср
ср2800:00+20ююз6976100 0.0 1003395
03:00+18ююз91388100 2.9 1002964
06:00+18з7988100 1.5 1002670
09:00+19юз798126 1.6 1003579
12:00+21юз810710 0.0 1004740
15:00+20зюз710740 0.0 1004683
18:00+19юз68800 0.0 1005396
21:00+19юз46800 0.1 1007124
29 сентября, чт
чт2900:00+19юз45762 0.0 100861
03:00+19юз347748 0.1 100949
06:00+19ююз33775 0.1 100943
09:00+21ю4569100 0.1 1011196
12:00+22ююз556089 0.0 1011428
15:00+22ююз555879 0.0 1012357
18:00+21ю45675 0.0 1013166
21:00+19ююв46775 0.0 101395